BMCB-29 Weather Reports


time (UTC)temp
F
wind
direction
speed
knots
gust
knots
rain 1hr
in
rain 24hr
in
rain mn
in
humidity
%
barometer
mb
20260503071044 58 0 0.0 0.0 0.00 0.00 0.00 92 1014.2
20260503055040 53 0 0.0 0.0 0.00 0.00 0.00 10 1014.1
20260503054039 52 0 0.0 0.0 0.00 0.00 0.00 10 1014.2
20260503052042 52 0 0.0 0.0 0.00 0.00 0.00 10 1014.3
20260503051041 51 0 0.0 0.0 0.00 0.00 0.00 10 1014.3
20260503050042 51 0 0.0 0.0 0.00 0.00 0.00 10 1014.4
20260503045041 51 0 0.0 0.0 0.00 0.00 0.00 10 1014.5
20260503044044 52 0 0.0 0.0 0.00 0.00 0.00 10 1014.5
20260503043043 51 0 0.0 0.0 0.00 0.00 0.00 10 1014.5
20260503042041 51 0 0.0 0.0 0.00 0.00 0.00 10 1014.4
20260503040043 51 0 0.0 0.0 0.00 0.00 0.00 99 1014.5
20260503035043 52 0 0.0 0.0 0.00 0.00 0.00 99 1014.6
20260503034044 52 0 0.0 0.0 0.00 0.00 0.00 99 1014.6
20260503033042 52 0 0.0 0.0 0.00 0.00 0.00 99 1014.7
20260503031043 52 0 0.0 0.0 0.00 0.02 0.00 99 1014.7
20260503030042 51 0 0.0 0.0 0.00 0.02 0.00 98 1014.7
20260503025042 53 0 0.0 0.0 0.00 0.02 0.00 98 1014.7
20260503024042 53 0 0.0 0.0 0.00 0.02 0.00 99 1014.7
20260503023042 53 0 0.0 0.0 0.00 0.02 0.00 98 1014.8
20260503021041 53 0 0.0 0.0 0.00 0.02 0.00 98 1014.9
20260503020041 53 0 0.0 0.0 0.00 0.02 0.00 98 1015.0
20260503015042 52 0 0.0 0.0 0.00 0.02 0.00 98 1015.1
20260503013043 53 0 0.0 0.0 0.00 0.02 0.00 98 1015.2
20260503012043 53 0 0.0 0.0 0.00 0.02 0.00 98 1015.3
20260503011044 53 0 0.0 0.0 0.00 0.02 0.00 98 1015.4
20260503010043 52 0 0.0 0.0 0.00 0.02 0.00 96 1015.5
20260503004043 54 0 0.0 0.0 0.00 0.02 0.00 97 1015.6
20260503003043 54 0 0.0 0.0 0.00 0.02 0.00 96 1015.7
20260503002045 54 0 0.0 0.0 0.00 0.02 0.00 96 1015.8
20260503000046 55 0 0.0 0.0 0.00 0.02 0.00 95 1015.8
20260502235046 55 0 0.0 0.0 0.00 0.02 0.00 94 1015.9
20260502233045 57 0 0.0 0.0 0.00 0.02 0.00 92 1015.9
20260502231045 56 0 0.0 0.0 0.00 0.02 0.00 92 1015.8
20260502230043 56 0 0.0 0.0 0.00 0.02 0.00 92 1015.9
20260502224045 57 0 0.0 0.0 0.00 0.02 0.00 92 1015.8
20260502223045 57 0 0.0 0.0 0.00 0.02 0.00 91 1015.8
20260502222046 57 0 0.0 0.0 0.00 0.02 0.00 91 1015.8
20260502221047 58 0 0.0 0.0 0.00 0.02 0.00 89 1015.9
20260502214048 58 0 0.0 0.0 0.00 0.02 0.02 90 1016.0
20260502213049 58 0 0.0 0.0 0.00 0.02 0.02 89 1016.0
20260502212049 59 0 0.0 0.0 0.00 0.02 0.02 88 1016.0
20260502211046 59 0 0.0 0.0 0.00 0.02 0.02 88 1016.0
20260502205047 59 0 0.0 0.0 0.00 0.02 0.02 88 1016.1
20260502204048 60 0 0.0 0.0 0.00 0.02 0.02 86 1016.1
20260502203050 61 0 0.0 0.0 0.00 0.02 0.02 84 1016.1
20260502202051 61 0 0.0 0.0 0.00 0.02 0.02 84 1016.2
20260502200045 62 0 0.0 0.0 0.00 0.02 0.02 81 1016.2
20260502195046 63 0 0.0 0.0 0.00 0.02 0.02 78 1016.1
20260502194043 64 0 0.0 0.0 0.00 0.02 0.02 74 1016.0
20260502193045 65 0 0.0 0.0 0.00 0.02 0.02 73 1015.9
20260502192049 65 0 0.0 0.0 0.00 0.02 0.02 73 1015.9
20260502191049 65 0 0.0 0.0 0.00 0.02 0.02 74 1015.9
20260502185047 64 0 0.0 0.0 0.00 0.02 0.02 75 1015.9
20260502184046 65 0 0.0 0.0 0.00 0.02 0.02 75 1015.9
20260502183048 66 0 0.0 0.0 0.00 0.02 0.02 75 1015.8
20260502182043 66 0 0.0 0.0 0.00 0.02 0.02 76 1015.8
20260502181046 69 0 0.0 0.0 0.00 0.02 0.02 72 1015.6
20260502164045 71 0 0.0 0.0 0.00 0.02 0.02 62 1015.9
20260502163047 72 0 0.0 0.0 0.00 0.02 0.02 58 1016.0
20260502162044 73 0 0.0 0.0 0.00 0.02 0.02 56 1016.2
20260502161049 73 0 0.0 0.0 0.00 0.02 0.02 55 1016.2
20260502151046 76 0 0.0 0.0 0.00 0.02 0.02 50 1016.6
20260502122044 74 0 0.0 0.0 0.00 0.02 0.02 56 1019.2
20260502121043 74 0 0.0 0.0 0.00 0.02 0.02 56 1019.4
20260502115042 72 0 0.0 0.0 0.00 0.02 0.02 59 1019.8
20260502113043 72 0 0.0 0.0 0.00 0.02 0.02 60 1020.0
20260502112046 72 0 0.0 0.0 0.00 0.02 0.02 62 1020.3
20260502111046 71 0 0.0 0.0 0.00 0.02 0.02 64 1020.3
20260502110042 71 0 0.0 0.0 0.00 0.02 0.02 63 1020.4
20260502105048 71 0 0.0 0.0 0.00 0.02 0.02 63 1020.5
20260502104044 71 0 0.0 0.0 0.00 0.02 0.02 65 1020.6
20260502101044 70 0 0.0 0.0 0.00 0.02 0.02 68 1020.8
20260502091046 68 0 0.0 0.0 0.00 0.02 0.02 71 1021.2